Tracking 17938 objects as of 24-February-2017
HD Live streaming from Space Station
objects crossing your sky now

PUCP-SAT 1

Track PUCP-SAT 1 now!
10-day predictions
PUCP-SAT 1 is classified as:


NORAD ID: 39442
Int'l Code: 2013-066AC
Perigee: 583.5 km
Apogee: 626.7 km
Inclination: 97.7 °
Period: 96.6 minutes
Semi major axis: 6976 km
RCS: Unknown
Launch date: November 21, 2013
Source: (TBD)
Launch site: Orenburg, Russia (OREN)
Uplink (MHz): 145.840
Downlink (MHz): 145.840/437.200
Beacon (MHz):
Mode: 1200bps AFSK
Call sign:
Status: Inactive

Your satellite tracking list
Your tracking list is empty





NASA's NSSDC Master Catalog

Two Line Element Set (TLE):
1 39442U 13066AC  17053.85985005  .00000702  00000-0  77881-4 0  9998
2 39442  97.6640 118.7539 0030935 240.5096 119.3035 14.90043922175667
Source of the keplerian elements: AFSPC